Prudenville, MI

6:37 AM EST on February 26, 2017 (GMT -0500)
Roscommon County

Weather History for KHTL - April, 2014

Change the Weather History Date:

Friday, April 18, 2014

  Actual Average Record
Temperature  
Mean Temperature 38 °F 44 °F  
Max Temperature 47 °F 56 °F 86 °F (2002)
Min Temperature 29 °F 32 °F 17 °F (1944)
Degree Days  
Heating Degree Days 27 21  
Month to date heating degree days 482 452  
Since 1 July heating degree days 8336 7437  
Cooling Degree Days 0 0  
Month to date cooling degree days 0 0  
Year to date cooling degree days 0 0  
Moisture  
Dew Point 29 °F    
Average Humidity 75    
Maximum Humidity 100    
Minimum Humidity 49    
Precipitation  
Precipitation 0.00 in 0.08 in 1.37 in (2004)
Month to date precipitation 4.28 1.54  
Year to date precipitation 8.23 6.10  
Snow  
Snow 0.00 in 0.10 in 1.40 in (1951)
Month to date snowfall 3.5 3.1  
Since 1 July snowfall 61.9 65.9  
Snow Depth T in    
Sea Level Pressure  
Sea Level Pressure 30.33 in    
Wind  
Wind Speed 7 mph (NW)    
Max Wind Speed 15 mph    
Max Gust Speed 21 mph    
Visibility 9 miles    
Events      
T = Trace of Precipitation, MM = Missing Value Source: NWS Daily Summary

Daily Weather History Graph

Daily Weather History Graph

Search for Another Location

Airport or City:

Trip Planner

Search our weather history database for the weather conditions in past years. The results will help you decide how hot, cold, wet, or windy it might be!

Date:

Astronomy

Apr. 18, 2014 Rise Set
Actual Time 6:49 AM EDT 8:26 PM EDT
Civil Twilight 6:19 AM EDT 8:57 PM EDT
Nautical Twilight 5:42 AM EDT 9:34 PM EDT
Astronomical Twilight 5:02 AM EDT 10:14 PM EDT
Moon No Moon Rise 9:06 AM EDT (4/18)
Length of Visible Light 14h 38m
Length of Day
13h 37m
Waning Gibbous, 87% of the Moon is Illuminated
Apr 18
Waning Gibbous
Apr 22
Last Quarter
Apr 29
New
May 6
First Quarter
May 14
Full

Hourly Weather History & Observations

Time (EDT) Temp. Windchill Dew Point Humidity Pressure Visibility Wind Dir Wind Speed Gust Speed Precip Events Conditions
12:53 AM 39.0 °F 36.8 °F 32.0 °F 76% 30.25 in 10.0 mi NW 3.5 mph - N/A   Clear
1:53 AM 37.9 °F 32.7 °F 32.0 °F 79% 30.27 in 10.0 mi NNW 6.9 mph - N/A   Clear
2:53 AM 37.0 °F - 30.9 °F 79% 30.27 in 10.0 mi Calm Calm - N/A   Clear
3:53 AM 36.0 °F - 30.9 °F 82% 30.27 in 10.0 mi Calm Calm - N/A   Clear
4:53 AM 34.0 °F - 30.9 °F 89% 30.27 in 9.0 mi Calm Calm - N/A   Mostly Cloudy
5:53 AM 32.0 °F - 30.0 °F 92% 30.27 in 8.0 mi Calm Calm - N/A   Mostly Cloudy
6:53 AM 30.0 °F 26.5 °F 30.0 °F 100% 30.29 in 5.0 mi South 3.5 mph - N/A   Scattered Clouds
7:53 AM 32.0 °F - 30.0 °F 92% 30.31 in 3.0 mi Calm Calm - N/A   Clear
8:53 AM 37.9 °F 35.5 °F 32.0 °F 79% 30.32 in 10.0 mi West 3.5 mph - N/A   Partly Cloudy
9:53 AM 41.0 °F 37.1 °F 32.0 °F 70% 30.32 in 10.0 mi Variable 5.8 mph - N/A   Clear
10:53 AM 42.1 °F 37.1 °F 33.1 °F 70% 30.33 in 10.0 mi West 8.1 mph - N/A   Mostly Cloudy
11:53 AM 43.0 °F 36.8 °F 32.0 °F 65% 30.33 in 10.0 mi NW 11.5 mph - N/A   Scattered Clouds
12:53 PM 43.0 °F 37.7 °F 32.0 °F 65% 30.34 in 10.0 mi WNW 9.2 mph - N/A   Mostly Cloudy
1:53 PM 45.0 °F 39.3 °F 30.9 °F 58% 30.34 in 10.0 mi WNW 11.5 mph - N/A   Mostly Cloudy
2:53 PM 46.9 °F - 30.0 °F 52% 30.35 in 10.0 mi West 9.2 mph - N/A   Partly Cloudy
3:53 PM 46.0 °F 41.0 °F 28.0 °F 50% 30.34 in 10.0 mi West 10.4 mph - N/A   Clear
4:53 PM 46.0 °F 40.6 °F 28.0 °F 50% 30.35 in 10.0 mi WNW 11.5 mph 17.3 mph N/A   Clear
5:53 PM 43.0 °F 35.7 °F 25.0 °F 49% 30.35 in 10.0 mi North 15.0 mph 20.7 mph N/A   Clear
6:53 PM 42.1 °F 36.1 °F 24.1 °F 49% 30.37 in 10.0 mi NNW 10.4 mph - N/A   Clear
7:53 PM 37.4 °F 29.8 °F 24.8 °F 60% 30.34 in 10.0 mi NNW 11.5 mph - N/A   Clear
8:53 PM 35.1 °F 27.9 °F 24.1 °F 64% 30.40 in 10.0 mi North 9.2 mph - N/A   Clear
9:53 PM 33.1 °F 26.9 °F 24.1 °F 70% 30.42 in 10.0 mi North 6.9 mph - N/A   Clear
10:53 PM 30.2 °F 23.4 °F 24.8 °F 80% 30.38 in 10.0 mi North 6.9 mph - N/A   Clear
11:53 PM 30.0 °F 25.2 °F 23.0 °F 75% 30.42 in 10.0 mi North 4.6 mph - N/A   Clear